Weather History for PANT - December, 2013

Change the Weather History Date:

Thursday, December 12, 2013

  Actual Average Record
Temperature  
Mean Temperature 44 °F 37 °F  
Max Temperature 45 °F 42 °F 62 °F (1962)
Min Temperature 42 °F 33 °F 10 °F (1971)
Degree Days  
Heating Degree Days 21 28  
Month to date heating degree days 383 329  
Since 1 July heating degree days 2197 2379  
Cooling Degree Days 0    
Month to date cooling degree days 0  
Year to date cooling degree days 22  
Moisture  
Dew Point 42 °F    
Average Humidity 0    
Maximum Humidity 0    
Minimum Humidity 0    
Precipitation  
Precipitation 0.74 in 0.36 in 4.01 in (1997)
Month to date precipitation 4.12 4.36  
Year to date precipitation 85.33 95.27  
Snow  
Snow 0.00 in 0.30 in 3.90 in (1975)
Month to date snowfall 0.1 2.7  
Since 1 July snowfall 5.8 6.3  
Snow Depth 0.00 in    
Sea Level Pressure  
Sea Level Pressure 29.64 in    
Wind  
Wind Speed 14 mph (SSE)    
Max Wind Speed 30 mph    
Max Gust Speed 39 mph    
Visibility 8 miles    
Events Rain    
T = Trace of Precipitation, MM = Missing Value Source: NWS Daily Summary

Daily Weather History Graph

Daily Weather History Graph

Search for Another Location

Airport or City:

Trip Planner

Search our weather history database for the weather conditions in past years. The results will help you decide how hot, cold, wet, or windy it might be!

Date:

Astronomy

Dec. 12, 2013 Rise Set
Actual Time 8:02 AM AKST 3:17 PM AKST
Civil Twilight 7:17 AM AKST 4:02 PM AKST
Nautical Twilight 6:30 AM AKST 4:50 PM AKST
Astronomical Twilight 5:45 AM AKST 5:34 PM AKST
Moon 1:01 PM AKST (12/12) 2:56 AM AKST (12/12)
Length of Visible Light 8h 45m
Length of Day
7h 14m
Waxing Gibbous, 81% of the Moon is Illuminated
Dec 12
Waxing Gibbous
Dec 17
Full
Dec 25
Last Quarter
Jan 1
New
Jan 7
First Quarter

Hourly Weather History & Observations

Time (AKST) Temp. Windchill Dew Point Humidity Pressure Visibility Wind Dir Wind Speed Gust Speed Precip Events Conditions
12:53 AM 43.0 °F 34.5 °F 41.0 °F 93% 29.54 in 6.0 mi SE 19.6 mph 38.0 mph 0.03 in Rain Light Rain
1:00 AM 43.0 °F 34.2 °F 41.0 °F 93% 29.52 in 9.0 mi SE 20.7 mph 38.0 mph 0.01 in Rain Light Rain
1:53 AM 43.0 °F 34.2 °F 41.0 °F 93% 29.54 in 9.0 mi SE 20.7 mph 33.4 mph 0.02 in Rain Light Rain
3:35 AM 43.0 °F 34.5 °F 41.0 °F 93% 29.51 in 10.0 mi SE 19.6 mph 29.9 mph 0.01 in Rain Light Rain
3:53 AM 43.0 °F 35.7 °F 41.0 °F 93% 29.51 in 10.0 mi SE 15.0 mph 27.6 mph 0.02 in Rain Light Rain
4:15 AM 43.0 °F 34.8 °F 41.0 °F 93% 29.50 in 9.0 mi SE 18.4 mph 27.6 mph 0.01 in Rain Light Rain
4:53 AM 43.0 °F 34.8 °F 41.0 °F 93% 29.51 in 10.0 mi SE 18.4 mph 27.6 mph 0.03 in Rain Light Rain
5:53 AM 43.0 °F 35.1 °F 41.0 °F 93% 29.51 in 6.0 mi SE 17.3 mph 27.6 mph 0.02 in Rain Light Rain
6:53 AM 43.0 °F 34.5 °F 42.1 °F 97% 29.51 in 10.0 mi SE 19.6 mph 32.2 mph 0.09 in Rain Light Rain
7:53 AM 43.0 °F 34.8 °F 42.1 °F 97% 29.53 in 8.0 mi SE 18.4 mph 28.8 mph 0.06 in Rain Rain
8:53 AM 43.0 °F 36.8 °F 42.1 °F 97% 29.54 in 8.0 mi SE 11.5 mph 24.2 mph 0.06 in Rain Light Rain
9:53 AM 43.0 °F 35.4 °F 42.1 °F 97% 29.56 in 6.0 mi SE 16.1 mph 24.2 mph 0.06 in Rain Light Rain
10:53 AM 43.0 °F 34.8 °F 42.1 °F 97% 29.57 in 7.0 mi SE 18.4 mph 26.5 mph 0.10 in Rain Light Rain
11:48 AM 42.8 °F 35.4 °F 42.8 °F 100% 29.57 in 5.0 mi SSE 15.0 mph 26.5 mph 0.07 in Rain Light Rain
11:53 AM 43.0 °F 35.4 °F 43.0 °F 100% 29.58 in 4.0 mi SE 16.1 mph 27.6 mph 0.07 in Rain Light Rain
12:04 PM 43.0 °F 36.4 °F 43.0 °F 100% 29.58 in 2.0 mi SE 12.7 mph 21.9 mph 0.04 in Rain Rain
12:23 PM 44.1 °F 37.4 °F 44.1 °F 100% 29.58 in 3.0 mi SSE 13.8 mph - 0.08 in Rain Light Rain
12:28 PM 44.1 °F 37.4 °F 44.1 °F 100% 29.58 in 2.5 mi SSE 13.8 mph 20.7 mph 0.09 in Rain Light Rain
12:53 PM 45.0 °F 38.9 °F 45.0 °F 100% 29.59 in 2.0 mi SSE 12.7 mph 21.9 mph 0.12 in Rain Light Rain
1:24 PM 45.0 °F 41.2 °F 45.0 °F 100% 29.60 in 6.0 mi South 6.9 mph 18.4 mph 0.04 in   Overcast
1:53 PM 45.0 °F 40.6 °F 45.0 °F 100% 29.61 in 5.0 mi South 8.1 mph - 0.04 in Rain Light Rain
2:53 PM 45.0 °F 43.5 °F 45.0 °F 100% 29.63 in 10.0 mi Variable 3.5 mph - 0.01 in   Mostly Cloudy
3:00 PM 45.0 °F 42.6 °F 45.0 °F 100% 29.63 in 10.0 mi South 4.6 mph - N/A   Mostly Cloudy
3:53 PM 44.1 °F 41.5 °F 44.1 °F 100% 29.66 in 10.0 mi Variable 4.6 mph - N/A   Mostly Cloudy
4:02 PM 44.1 °F 42.5 °F 44.1 °F 100% 29.66 in 10.0 mi SSE 3.5 mph - N/A   Overcast
4:41 PM 43.0 °F 41.3 °F 43.0 °F 100% 29.68 in 10.0 mi Variable 3.5 mph - N/A   Overcast
4:53 PM 43.0 °F 40.3 °F 43.0 °F 100% 29.69 in 10.0 mi Variable 4.6 mph - N/A   Overcast
5:53 PM 42.1 °F 39.2 °F 41.0 °F 96% 29.72 in 10.0 mi West 4.6 mph - N/A   Overcast
6:53 PM 41.0 °F 37.1 °F 39.0 °F 93% 29.76 in 10.0 mi Variable 5.8 mph - N/A   Overcast
7:16 PM 41.0 °F 35.8 °F 37.9 °F 89% 29.77 in 10.0 mi West 8.1 mph - N/A   Overcast
7:40 PM 41.0 °F 35.8 °F 37.9 °F 89% 29.79 in 10.0 mi West 8.1 mph - N/A   Overcast
7:53 PM 41.0 °F 36.4 °F 39.0 °F 93% 29.81 in 10.0 mi West 6.9 mph - N/A   Overcast
8:53 PM 39.9 °F 35.8 °F 37.0 °F 89% 29.84 in 10.0 mi West 5.8 mph - N/A   Mostly Cloudy
9:53 PM 39.0 °F 34.0 °F 37.0 °F 93% 29.87 in 10.0 mi West 6.9 mph - N/A   Clear
10:53 PM 39.0 °F 36.8 °F 36.0 °F 89% 29.90 in 10.0 mi West 3.5 mph - N/A   Clear
11:53 PM 37.9 °F - 36.0 °F 93% 29.94 in 10.0 mi Calm Calm - N/A   Scattered Clouds